Home > Weather > Betul > Past weeks

Flag for India Weather for the Past 2 Weeks in Betul, Madhya Pradesh, India

Now
93 °F

Passing clouds.


Feels Like: 93 °F
Forecast: 76 / 105 °F
Wind: 5 mph from Northwest

Location: Nagpur Sonegaon

Current Time: Apr 29, 2016 at 1:28:26 AM

Latest Report: Apr 29, 2016 at 12:30 AM


Visibility: 2 mi

Pressure: 29.74 "Hg (27.63 "Hg at 663m altitude)

Humidity: 32%

Dew Point: 59 °F

Location of BetulLocation

Historic Weather in Betul — Graph

°F

Betul Temperature Yesterday

Maximum temperature yesterday: 109 °F (at 2:00 PM)
Minimum temperature yesterday: 84 °F (at 4:00 AM)
Average temperature yesterday: 99 °F

High & Low Weather Summary for the Past Weeks

 TemperatureHumidityPressure
High113 °F (Apr 16, 4:00 PM)57% (Apr 17, 2:30 AM)29.89 "Hg (Apr 17, 2:30 AM)
Low73 °F (Apr 17, 2:30 AM)7% (Apr 14, 3:30 PM)29.59 "Hg (Apr 23, 4:30 PM)
Average98 °F20%29.74 "Hg
* Reported Apr 13 11:30 PM — Midnight between Apr 28 and Apr 29, Betul, Weather by CustomWeather, © 2016

Note: Actual official high and low records may vary slightly from our data, if they occured in-between our weather recording intervals... More about our weather records

Advertising

Betul Weather History for the Previous 24 Hours

Scroll right to see more
 ConditionsComfort  
Time TempWeatherWind HumidityBarometerVisibility
12:00 AM
Fri, Apr 29
95 °FPassing clouds.5 mph30%29.74 "Hg2 mi
11:30 PM
Thu, Apr 28
95 °FPassing clouds.5 mph30%29.77 "Hg2 mi
11:00 PM95 °FPassing clouds.3 mph30%29.77 "Hg2 mi
10:30 PM95 °FPassing clouds.3 mph30%29.77 "Hg2 mi
9:30 PM97 °FPassing clouds.3 mph27%29.77 "Hg2 mi
9:00 PM99 °FPassing clouds.6 mph24%29.74 "Hg2 mi
8:30 PM99 °FPassing clouds.5 mph22%29.74 "Hg3 mi
7:30 PM100 °FPassing clouds.No wind20%29.71 "Hg3 mi
7:00 PM102 °FScattered clouds.2 mph18%29.71 "Hg4 mi
6:30 PM104 °FScattered clouds.2 mph16%29.71 "Hg4 mi
6:00 PM106 °FScattered clouds.5 mph17%29.68 "Hg4 mi
5:30 PM106 °FScattered clouds.9 mph17%29.68 "Hg4 mi
5:00 PM108 °FScattered clouds.9 mph15%29.68 "Hg4 mi
4:30 PM108 °FScattered clouds.7 mph16%29.68 "Hg4 mi
4:00 PM108 °FScattered clouds.9 mph16%29.68 "Hg4 mi
3:30 PM109 °FScattered clouds.5 mph15%29.71 "Hg4 mi
3:00 PM109 °FScattered clouds.7 mph15%29.71 "Hg4 mi
2:30 PM108 °FScattered clouds.6 mph16%29.71 "Hg4 mi
2:00 PM109 °FScattered clouds.9 mph15%29.71 "Hg4 mi
1:30 PM108 °FPartly sunny.3 mph16%29.74 "Hg4 mi
1:00 PM106 °FPartly sunny.3 mph15%29.77 "Hg4 mi
11:00 AM102 °FPartly sunny.5 mph20%29.83 "Hg4 mi
10:30 AM100 °FPartly sunny.6 mph22%29.83 "Hg4 mi
9:30 AM95 °FScattered clouds.6 mph28%29.86 "Hg4 mi
8:30 AM93 °FScattered clouds.6 mph34%29.83 "Hg4 mi
7:30 AM90 °FScattered clouds.3 mph38%29.83 "Hg3 mi
6:30 AM86 °FScattered clouds.3 mph40%29.80 "Hg2 mi
6:00 AM86 °FPassing clouds.No wind43%29.80 "Hg2 mi
5:00 AM84 °FPassing clouds.2 mph45%29.80 "Hg2 mi
4:00 AM84 °FWarm.2 mph45%29.77 "HgN/A
1:30 AM90 °FPassing clouds.8 mph38%29.77 "Hg2 mi
Weather by CustomWeather, © 2016

See weather overviewHow to use our weather pages